User: anonymous   Login
Location: Darlington Observatory
(36.4817°N, 105.8156°W)
Time: 17:44:07
(UTC-06:00)
Language:

Cosmos 2278 Rocket - Orbit

View from above orbital plane
View from above orbital plane
View from above satellite
View from above satellite

Ground track
Ground track

The orbit data is extracted from the following two-line orbital elements,

1 23088U 94023B   16152.15633996 -.00000307  00000-0 -13469-3 0  9994
2 23088  71.0001   3.8783 0005193 299.7742  60.2864 14.14641063141517
Epoch (UTC): 31 May 2016 03:45:07
Eccentricity: 0.0005193
inclination: 71.0001°
perigee height: 840 km
apogee height: 847 km
right ascension of ascending node: 3.8783°
argument of perigee: 299.7742°
revolutions per day: 14.14641063
mean anomaly at epoch: 60.2864°
orbit number at epoch: 14151

The dashed part of the orbit path shows where the satellite is in the earth's shadow,  

DLR